Lincoln, IL

12:59 PM CST on March 01, 2017 (GMT -0600)
Lincoln

Weather History for KAAA - April, 2013

Change the Weather History Date:

Saturday, April 27, 2013

  Actual Average (KSPI) Record (KSPI)
Temperature  
Mean Temperature 51 °F -  
Max Temperature 61 °F 69 °F 87 °F (1981)
Min Temperature 42 °F 48 °F 33 °F (1968)
Degree Days  
Heating Degree Days 14    
Growing Degree Days 1 (Base 50)    
Moisture  
Dew Point 48 °F    
Average Humidity 84    
Maximum Humidity 97    
Minimum Humidity 54    
Precipitation  
Precipitation 0.39 in - - ()
Sea Level Pressure  
Sea Level Pressure 30.15 in    
Wind  
Wind Speed 5 mph (East)    
Max Wind Speed 12 mph    
Max Gust Speed 17 mph    
Visibility 7 miles    
Events Rain    
Averages and records for this station are not official NWS values.
T = Trace of Precipitation, MM = Missing Value Source: NWS Daily Summary

Daily Weather History Graph

Daily Weather History Graph

Search for Another Location

Airport or City:

Trip Planner

Search our weather history database for the weather conditions in past years. The results will help you decide how hot, cold, wet, or windy it might be!

Date:

Astronomy

Apr. 27, 2013 Rise Set
Actual Time 6:01 AM CDT 7:48 PM CDT
Civil Twilight 5:32 AM CDT 8:17 PM CDT
Nautical Twilight 4:57 AM CDT 8:53 PM CDT
Astronomical Twilight 4:19 AM CDT 9:31 PM CDT
Moon 10:17 PM CDT (4/27) 7:20 AM CDT (4/27)
Length of Visible Light 14h 44m
Length of Day
13h 46m
Waning Gibbous, 95% of the Moon is Illuminated
Apr 27
Waning Gibbous
May 2
Last Quarter
May 9
New
May 17
First Quarter
May 24
Full

Hourly Weather History & Observations

Time (CDT) Temp. Windchill Dew Point Humidity Pressure Visibility Wind Dir Wind Speed Gust Speed Precip Events Conditions
12:15 AM 52.9 °F - 46.6 °F 79% 30.30 in 10.0 mi South 4.6 mph - N/A   Overcast
12:35 AM 52.7 °F - 46.4 °F 79% 30.30 in 10.0 mi South 5.8 mph - N/A   Overcast
12:55 AM 51.1 °F - 46.4 °F 84% 30.30 in 10.0 mi South 3.5 mph - N/A   Overcast
1:15 AM 50.4 °F - 45.9 °F 85% 30.30 in 10.0 mi Calm Calm - N/A   Scattered Clouds
1:35 AM 50.0 °F - 45.7 °F 85% 30.29 in 10.0 mi Calm Calm - N/A   Clear
1:55 AM 45.5 °F - 43.2 °F 92% 30.28 in 10.0 mi Calm Calm - N/A   Clear
2:15 AM 46.6 °F - 45.0 °F 94% 30.28 in 10.0 mi Calm Calm - N/A   Clear
2:35 AM 47.3 °F - 45.1 °F 92% 30.28 in 10.0 mi Calm Calm - N/A   Clear
2:55 AM 46.4 °F - 44.6 °F 93% 30.27 in 10.0 mi Calm Calm - N/A   Clear
3:15 AM 45.7 °F - 43.7 °F 93% 30.27 in 7.0 mi Calm Calm - N/A   Clear
3:35 AM 44.8 °F - 43.2 °F 94% 30.27 in 7.0 mi Calm Calm - N/A   Clear
3:55 AM 45.0 °F - 43.7 °F 95% 30.27 in 5.0 mi Calm Calm - N/A   Clear
4:15 AM 43.7 °F - 42.4 °F 95% 30.27 in 5.0 mi Calm Calm - N/A   Clear
4:35 AM 42.6 °F - 41.5 °F 96% 30.26 in 5.0 mi Calm Calm - N/A   Clear
4:55 AM 42.8 °F - 41.9 °F 97% 30.26 in 3.0 mi Calm Calm - N/A   Clear
5:15 AM 43.0 °F - 42.1 °F 97% 30.25 in 3.0 mi Calm Calm - N/A   Clear
6:35 AM 42.8 °F 41.1 °F 41.9 °F 97% 30.24 in 1.0 mi ENE 3.5 mph - N/A   Overcast
6:55 AM 46.4 °F 43.5 °F 45.5 °F 97% 30.23 in 3.0 mi East 5.8 mph - N/A   Overcast
7:15 AM 47.3 °F - 46.4 °F 97% 30.24 in 5.0 mi East 4.6 mph - N/A   Overcast
7:35 AM 48.2 °F - 47.5 °F 97% 30.23 in 5.0 mi East 5.8 mph - N/A   Overcast
7:55 AM 49.8 °F - 48.6 °F 95% 30.22 in 5.0 mi East 4.6 mph - N/A   Mostly Cloudy
8:15 AM 53.2 °F - 49.1 °F 86% 30.22 in 10.0 mi East 8.1 mph - N/A   Scattered Clouds
8:35 AM 54.5 °F - 48.6 °F 80% 30.22 in 10.0 mi East 10.4 mph - N/A   Scattered Clouds
8:55 AM 55.6 °F - 48.2 °F 76% 30.21 in 10.0 mi East 10.4 mph - N/A   Overcast
9:15 AM 55.8 °F - 47.1 °F 73% 30.21 in 10.0 mi East 9.2 mph - N/A   Overcast
9:35 AM 57.2 °F - 47.1 °F 69% 30.20 in 10.0 mi East 10.4 mph - N/A   Overcast
9:55 AM 57.4 °F - 45.9 °F 65% 30.20 in 10.0 mi ESE 11.5 mph - N/A   Overcast
10:15 AM 58.1 °F - 45.9 °F 64% 30.20 in 10.0 mi East 11.5 mph - N/A   Overcast
10:35 AM 58.5 °F - 46.2 °F 64% 30.19 in 10.0 mi East 10.4 mph - N/A   Overcast
10:55 AM 58.8 °F - 44.8 °F 60% 30.20 in 10.0 mi ESE 10.4 mph - N/A   Overcast
11:15 AM 59.2 °F - 45.1 °F 60% 30.19 in 10.0 mi ESE 9.2 mph - N/A   Overcast
11:35 AM 59.5 °F - 45.7 °F 60% 30.19 in 10.0 mi East 10.4 mph - N/A   Overcast
11:55 AM 60.3 °F - 44.6 °F 56% 30.18 in 10.0 mi ESE 8.1 mph - N/A   Overcast
12:15 PM 60.1 °F - 43.7 °F 55% 30.17 in 10.0 mi ESE 10.4 mph - N/A   Overcast
12:35 PM 60.4 °F - 44.1 °F 55% 30.16 in 10.0 mi ESE 10.4 mph 17.3 mph N/A   Overcast
12:55 PM 60.8 °F - 44.2 °F 54% 30.15 in 10.0 mi SE 11.5 mph - N/A   Overcast
1:15 PM 60.4 °F - 45.1 °F 57% 30.14 in 10.0 mi ESE 8.1 mph - N/A   Overcast
1:35 PM 60.8 °F - 45.1 °F 56% 30.13 in 10.0 mi ESE 6.9 mph 16.1 mph N/A   Overcast
1:55 PM 60.8 °F - 45.3 °F 57% 30.12 in 10.0 mi ESE 5.8 mph - N/A   Overcast
2:15 PM 60.1 °F - 45.5 °F 59% 30.11 in 10.0 mi SE 9.2 mph - N/A   Light Drizzle
2:35 PM 59.0 °F - 48.4 °F 68% 30.11 in 10.0 mi SSE 9.2 mph - N/A Rain Light Rain
2:55 PM 57.4 °F - 49.6 °F 75% 30.11 in 7.0 mi SSE 9.2 mph - N/A Rain Rain
3:15 PM 55.4 °F - 50.9 °F 85% 30.10 in 7.0 mi SSE 6.9 mph - 0.02 in Rain Rain
3:35 PM 54.7 °F - 52.2 °F 91% 30.10 in 5.0 mi South 5.8 mph - 0.05 in Rain Rain
3:55 PM 54.7 °F - 52.3 °F 92% 30.09 in 5.0 mi South 3.5 mph - 0.07 in Rain Rain
4:15 PM 54.7 °F - 52.5 °F 92% 30.08 in 5.0 mi SE 5.8 mph - 0.01 in Rain Rain
4:35 PM 54.3 °F - 52.0 °F 92% 30.08 in 5.0 mi ESE 4.6 mph - 0.06 in Rain Rain
4:55 PM 54.0 °F - 52.2 °F 94% 30.08 in 3.0 mi SE 5.8 mph - 0.13 in Rain Rain
5:15 PM 53.6 °F - 51.8 °F 94% 30.07 in 4.0 mi SE 4.6 mph - 0.05 in Rain Rain
5:35 PM 53.8 °F - 52.5 °F 95% 30.07 in 3.0 mi ESE 3.5 mph - 0.08 in Rain Rain
5:55 PM 53.8 °F - 52.3 °F 95% 30.06 in 4.0 mi East 6.9 mph - 0.10 in Rain Light Rain
6:15 PM 54.0 °F - 52.5 °F 95% 30.05 in 4.0 mi East 5.8 mph - 0.01 in Rain Light Rain
6:35 PM 54.0 °F - 52.7 °F 95% 30.04 in 4.0 mi East 5.8 mph - 0.03 in Rain Light Rain
6:55 PM 54.0 °F - 52.7 °F 95% 30.03 in 4.0 mi East 4.6 mph - 0.05 in Rain Light Rain
7:15 PM 54.0 °F - 52.7 °F 95% 30.02 in 5.0 mi ENE 6.9 mph - 0.01 in Rain Light Rain
7:35 PM 53.8 °F - 52.7 °F 96% 30.02 in 7.0 mi ENE 5.8 mph - 0.01 in   Light Drizzle
7:55 PM 53.8 °F - 52.5 °F 95% 30.01 in 7.0 mi ENE 6.9 mph - 0.02 in   Light Drizzle
8:15 PM 53.8 °F - 52.7 °F 96% 30.01 in 7.0 mi ENE 5.8 mph - N/A   Overcast
8:35 PM 53.8 °F - 52.7 °F 96% 30.01 in 7.0 mi ENE 5.8 mph - N/A   Overcast
8:55 PM 53.8 °F - 52.5 °F 95% 30.01 in 7.0 mi ENE 5.8 mph - N/A   Overcast
9:15 PM 53.8 °F - 52.5 °F 95% 30.01 in 5.0 mi ENE 5.8 mph - N/A Rain Rain
9:35 PM 53.6 °F - 52.3 °F 95% 30.00 in 3.0 mi ENE 8.1 mph - N/A   Light Drizzle
9:55 PM 53.6 °F - 52.3 °F 95% 30.00 in 3.0 mi ENE 4.6 mph - N/A   Light Drizzle
10:15 PM 53.6 °F - 52.3 °F 95% 29.99 in 4.0 mi ENE 5.8 mph - N/A Rain Light Rain
10:35 PM 53.4 °F - 52.2 °F 95% 29.99 in 4.0 mi NE 4.6 mph - N/A Rain Light Rain
10:55 PM 53.1 °F - 52.0 °F 96% 29.98 in 5.0 mi NE 4.6 mph - N/A Rain Light Rain
11:15 PM 53.2 °F - 52.2 °F 96% 29.97 in 5.0 mi NE 5.8 mph - N/A   Overcast
11:35 PM 53.2 °F - 52.2 °F 96% 29.97 in 5.0 mi NE 4.6 mph - N/A   Overcast
11:55 PM 53.6 °F - 52.3 °F 95% 29.96 in 4.0 mi NE 4.6 mph - 0.02 in Rain Rain